Lancaster, PA

6:29 AM EDT on September 15, 2019 (GMT -0400)
Lancaster

Weather History for KLNS - August, 2019

Change the Weather History Date:

Sunday, August 25, 2019

  Actual Average Record
Temperature  
Mean Temperature 67 °F -  
Max Temperature 77 °F 81 °F 91 °F (1980)
Min Temperature 57 °F 59 °F 48 °F (1987)
Cooling Degree Days 2    
Growing Degree Days 17 (Base 50)    
Moisture  
Dew Point 55 °F    
Average Humidity 66    
Maximum Humidity 83    
Minimum Humidity 47    
Precipitation  
Precipitation 0.00 in - - ()
Sea Level Pressure  
Sea Level Pressure 30.23 in    
Wind  
Wind Speed 6 mph (ENE)    
Max Wind Speed 15 mph    
Max Gust Speed 21 mph    
Visibility 10 miles    
Events      
Averages and records for this station are not official NWS values.
T = Trace of Precipitation, MM = Missing Value Source: NWS Daily Summary

Daily Weather History Graph

Daily Weather History Graph

Search for Another Location

Airport or City:

Astronomy

Aug. 25, 2019 Rise Set
Actual Time 6:25 AM EDT 7:47 PM EDT
Civil Twilight 5:57 AM EDT 8:16 PM EDT
Nautical Twilight 5:23 AM EDT 8:50 PM EDT
Astronomical Twilight 4:47 AM EDT 9:25 PM EDT
Moon 12:59 AM EDT (8/25) 4:06 PM EDT (8/25)
Length of Visible Light 14h 18m
Length of Day
13h 22m
Waning Crescent, 29% of the Moon is Illuminated
Aug 25
Waning Crescent
Aug 30
New
Sep 5
First Quarter
Sep 14
Full
Sep 21
Last Quarter

Hourly Weather History & Observations

Time (EDT) Temp. Dew Point Humidity Pressure Visibility Wind Dir Wind Speed Gust Speed Precip Events Conditions
12:53 AM 62.1 °F 54.0 °F 75% 30.24 in 10.0 mi ESE 3.5 mph - N/A   Overcast
1:53 AM 61.0 °F 55.0 °F 81% 30.23 in 10.0 mi East 3.5 mph - N/A   Mostly Cloudy
2:53 AM 61.0 °F 52.0 °F 72% 30.22 in 10.0 mi NE 4.6 mph - N/A   Clear
3:53 AM 61.0 °F 52.0 °F 72% 30.22 in 10.0 mi ENE 4.6 mph - N/A   Overcast
4:53 AM 57.9 °F 52.0 °F 81% 30.22 in 10.0 mi Calm Calm - N/A   Clear
5:53 AM 57.9 °F 52.0 °F 81% 30.23 in 10.0 mi ENE 4.6 mph - N/A   Clear
6:53 AM 57.0 °F 52.0 °F 83% 30.25 in 10.0 mi East 3.5 mph - N/A   Clear
7:53 AM 63.0 °F 55.9 °F 78% 30.27 in 10.0 mi ENE 3.5 mph - N/A   Partly Cloudy
8:53 AM 66.0 °F 57.0 °F 73% 30.27 in 10.0 mi ENE 10.4 mph - N/A   Clear
9:53 AM 70.0 °F 57.9 °F 65% 30.27 in 10.0 mi ENE 15.0 mph - N/A   Clear
10:53 AM 72.0 °F 57.0 °F 59% 30.27 in 10.0 mi NE 10.4 mph - N/A   Clear
11:53 AM 72.0 °F 55.9 °F 57% 30.25 in 10.0 mi East 10.4 mph - N/A   Partly Cloudy
12:53 PM 75.0 °F 55.9 °F 51% 30.24 in 10.0 mi ESE 13.8 mph 20.7 mph N/A   Mostly Cloudy
1:53 PM 75.9 °F 55.9 °F 50% 30.22 in 10.0 mi East 12.7 mph - N/A   Scattered Clouds
2:53 PM 73.9 °F 54.0 °F 50% 30.21 in 10.0 mi East 10.4 mph - N/A   Scattered Clouds
3:53 PM 75.9 °F 55.0 °F 48% 30.20 in 10.0 mi East 9.2 mph - N/A   Mostly Cloudy
4:53 PM 77.0 °F 55.0 °F 47% 30.20 in 10.0 mi East 8.1 mph - N/A   Partly Cloudy
5:53 PM 75.9 °F 55.0 °F 48% 30.19 in 10.0 mi East 8.1 mph - N/A   Clear
6:53 PM 73.9 °F 55.9 °F 53% 30.19 in 10.0 mi East 3.5 mph - N/A   Clear
7:53 PM 68.0 °F 55.0 °F 63% 30.19 in 10.0 mi ENE 5.8 mph - N/A   Clear
8:53 PM 68.0 °F 54.0 °F 61% 30.19 in 10.0 mi ENE 3.5 mph - N/A   Clear
9:53 PM 64.9 °F 55.0 °F 70% 30.20 in 10.0 mi East 4.6 mph - N/A   Clear
10:53 PM 62.1 °F 55.0 °F 78% 30.22 in 10.0 mi East 4.6 mph - N/A   Clear
11:53 PM 62.1 °F 55.0 °F 78% 30.22 in 10.0 mi East 3.5 mph - N/A   Clear